Time,TemperatureF,DewpointF,PressureIn,WindDirection,WindDirectionDegrees,WindSpeedMPH,WindSpeedGustMPH,Humidity,HourlyPrecipIn,Conditions,Clouds,dailyrainin,SoftwareType,DateUTC
2013-08-07 00:00:00,46.0,34.0,-100.00,North,-999,-999.0,-999.0,63,-99.99,,,0.00,,2013-08-07 06:00:00,
2013-08-07 01:00:00,46.0,34.0,-100.00,North,-999,-999.0,-999.0,63,-99.99,,,0.00,,2013-08-07 07:00:00,
2013-08-07 01:52:00,46.0,34.0,-100.00,North,-999,-999.0,-999.0,63,-99.99,,,0.00,,2013-08-07 07:52:00,
2013-08-07 02:00:00,46.0,34.0,-100.00,North,-999,-999.0,-999.0,63,-99.99,,,-99.99,,2013-08-07 08:00:00,
2013-08-07 02:52:00,46.0,34.0,-100.00,North,-999,-999.0,-999.0,63,-99.99,,,-99.99,,2013-08-07 08:52:00,
2013-08-07 03:00:00,46.0,34.0,-100.00,North,-999,-999.0,-999.0,63,-99.99,,,-99.99,,2013-08-07 09:00:00,
2013-08-07 03:54:00,46.0,34.0,-100.00,North,-999,-999.0,-999.0,63,-99.99,,,-99.99,,2013-08-07 09:54:00,
2013-08-07 04:00:00,44.0,-99.9,-100.00,North,-999,-999.0,-999.0,-999,-99.99,,,0.00,,2013-08-07 10:00:00,
2013-08-07 04:52:00,44.0,-99.9,-100.00,North,-999,-999.0,-999.0,-999,-99.99,,,0.00,,2013-08-07 10:52:00,
2013-08-07 05:00:00,44.0,32.0,-100.00,North,-999,-999.0,-999.0,63,-99.99,,,0.00,,2013-08-07 11:00:00,
2013-08-07 05:53:00,44.0,32.0,-100.00,North,-999,-999.0,-999.0,63,-99.99,,,0.00,,2013-08-07 11:53:00,
2013-08-07 06:00:00,44.0,32.0,-100.00,North,-999,-999.0,-999.0,63,-99.99,,,0.00,,2013-08-07 12:00:00,
2013-08-07 06:52:00,44.0,32.0,-100.00,North,-999,-999.0,-999.0,63,-99.99,,,0.00,,2013-08-07 12:52:00,
2013-08-07 07:00:00,46.0,34.0,-100.00,North,-999,-999.0,-999.0,63,-99.99,,,0.00,,2013-08-07 13:00:00,
2013-08-07 08:00:00,51.0,39.0,-100.00,North,-999,-999.0,-999.0,63,-99.99,,,0.00,,2013-08-07 14:00:00,
2013-08-07 08:52:00,51.0,39.0,-100.00,North,-999,-999.0,-999.0,63,-99.99,,,0.00,,2013-08-07 14:52:00,
2013-08-07 09:00:00,60.0,48.0,-100.00,North,-999,-999.0,-999.0,63,-99.99,,,0.00,,2013-08-07 15:00:00,
2013-08-07 09:53:00,60.0,48.0,-100.00,North,-999,-999.0,-999.0,63,-99.99,,,0.00,,2013-08-07 15:53:00,
2013-08-07 10:00:00,64.0,51.0,-100.00,North,-999,-999.0,-999.0,63,-99.99,,,0.00,,2013-08-07 16:00:00,
2013-08-07 10:53:00,64.0,51.0,-100.00,North,-999,-999.0,-999.0,63,-99.99,,,0.00,,2013-08-07 16:53:00,
2013-08-07 11:00:00,62.0,50.0,-100.00,North,-999,-999.0,-999.0,63,-99.99,,,0.00,,2013-08-07 17:00:00,
2013-08-07 11:52:00,62.0,50.0,-100.00,North,-999,-999.0,-999.0,63,-99.99,,,0.00,,2013-08-07 17:52:00,
2013-08-07 19:00:00,59.0,46.0,-100.00,North,-999,-999.0,-999.0,63,-99.99,,,0.00,,2013-08-08 01:00:00,
2013-08-07 19:43:00,59.0,46.0,-100.00,North,-999,-999.0,-999.0,63,-99.99,,,0.00,,2013-08-08 01:43:00,
2013-08-07 20:00:00,55.0,42.0,-100.00,North,-999,-999.0,-999.0,63,-99.99,,,0.00,,2013-08-08 02:00:00,
2013-08-07 20:43:00,55.0,-99.9,-100.00,North,-999,-999.0,-999.0,-999,-99.99,,,0.00,,2013-08-08 02:43:00,
2013-08-07 21:00:00,51.0,39.0,-100.00,North,-999,-999.0,-999.0,63,-99.99,,,0.00,,2013-08-08 03:00:00,
2013-08-07 22:00:00,49.0,37.0,-100.00,North,-999,-999.0,-999.0,63,-99.99,,,0.00,,2013-08-08 04:00:00,
2013-08-07 23:00:00,48.0,36.0,-100.00,North,-999,-999.0,-999.0,63,-99.99,,,0.00,,2013-08-08 05:00:00,
2013-08-07 23:43:00,48.0,36.0,-100.00,North,-999,-999.0,-999.0,63,-99.99,,,0.00,,2013-08-08 05:43:00,